Weather History for Molokai, HI

Change the Weather History Date:

Sunday, May 18, 2014

  Actual Average Record
Temperature  
Mean Temperature 73 °F -  
Max Temperature 82 °F 81 °F 86 °F (1981)
Min Temperature 64 °F 67 °F 59 °F (1987)
Cooling Degree Days 8    
Growing Degree Days 23 (Base 50)    
Moisture  
Dew Point 69 °F    
Average Humidity 85    
Maximum Humidity 100    
Minimum Humidity 58    
Precipitation  
Precipitation 0.00 in - - ()
Sea Level Pressure  
Sea Level Pressure 30.00 in    
Wind  
Wind Speed 4 mph (SSE)    
Max Wind Speed 10 mph    
Max Gust Speed -    
Visibility 10 miles    
Events      
Averages and records for this station are not official NWS values.
T = Trace of Precipitation, MM = Missing Value Source: NWS Daily Summary

Daily Weather History Graph

Daily Weather History Graph

Search for Another Location

Airport:

Trip Planner

Search our weather history database for the weather conditions in past years. The results will help you decide how hot, cold, wet, or windy it might be!

Date:

Astronomy

May. 18, 2014 Rise Set
Actual Time 5:49 AM HST 7:00 PM HST
Civil Twilight 5:25 AM HST 7:24 PM HST
Nautical Twilight 4:56 AM HST 7:53 PM HST
Astronomical Twilight 4:27 AM HST 8:22 PM HST
Moon 11:07 PM HST (5/18) 9:44 AM HST (5/18)
Length of Visible Light 13h 59m
Length of Day
13h 11m
Waning Gibbous, 79% of the Moon is Illuminated
May 18
Waning Gibbous
May 21
Last Quarter
May 28
New
Jun 5
First Quarter
Jun 12
Full

Hourly Weather History & Observations

Time (HST) Temp. Heat Index Dew Point Humidity Pressure Visibility Wind Dir Wind Speed Gust Speed Precip Events Conditions
12:54 AM 66.0 °F - 66.0 °F 100% 30.03 in 10.0 mi Calm Calm - N/A   Clear
1:54 AM 66.9 °F - 66.9 °F 100% 30.00 in 10.0 mi North 5.8 mph - N/A   Clear
2:54 AM 66.0 °F - 66.0 °F 100% 29.99 in 10.0 mi North 3.5 mph - N/A   Clear
3:54 AM 66.9 °F - 66.9 °F 100% 29.97 in 10.0 mi NNW 5.8 mph - N/A   Clear
4:54 AM 64.9 °F - 64.9 °F 100% 29.98 in 10.0 mi NW 4.6 mph - N/A   Clear
5:54 AM 66.9 °F - 66.9 °F 100% 29.99 in 10.0 mi NNW 4.6 mph - N/A   Clear
6:54 AM 71.1 °F - 70.0 °F 96% 30.00 in 10.0 mi Calm Calm - N/A   Clear
7:54 AM 75.0 °F - 70.0 °F 84% 30.01 in 10.0 mi Calm Calm - N/A   Clear
8:54 AM 79.0 °F - 68.0 °F 69% 30.02 in 10.0 mi Variable 5.8 mph - N/A   Clear
9:54 AM 80.1 °F 82.3 °F 66.9 °F 64% 30.02 in 10.0 mi SSE 6.9 mph - N/A   Clear
10:54 AM 80.1 °F 82.7 °F 68.0 °F 67% 30.02 in 10.0 mi SE 10.4 mph - N/A   Partly Cloudy
11:54 AM 82.0 °F 84.1 °F 66.0 °F 58% 30.01 in 10.0 mi South 8.1 mph - N/A   Clear
12:54 PM 82.0 °F 85.9 °F 70.0 °F 67% 30.00 in 10.0 mi Variable 6.9 mph - N/A   Partly Cloudy
1:54 PM 81.0 °F 83.8 °F 68.0 °F 65% 29.99 in 10.0 mi South 8.1 mph - N/A   Scattered Clouds
2:54 PM 81.0 °F 83.8 °F 68.0 °F 65% 29.98 in 10.0 mi South 10.4 mph - N/A   Scattered Clouds
3:54 PM 79.0 °F - 66.9 °F 66% 29.97 in 10.0 mi ESE 9.2 mph - N/A   Overcast
4:54 PM 78.1 °F - 68.0 °F 71% 29.96 in 10.0 mi South 5.8 mph - N/A   Scattered Clouds
5:54 PM 77.0 °F - 70.0 °F 79% 29.98 in 10.0 mi SSE 6.9 mph - N/A   Overcast
6:08 PM 77.0 °F - 71.6 °F 83% 29.97 in 10.0 mi South 5.8 mph - N/A   Overcast
6:51 PM 75.2 °F - 69.8 °F 83% 29.98 in 10.0 mi South 4.6 mph - N/A   Overcast
6:54 PM 75.9 °F - 70.0 °F 82% 29.99 in 10.0 mi South 3.5 mph - N/A   Overcast
7:49 PM 73.4 °F - 71.6 °F 94% 29.99 in 10.0 mi Calm Calm - N/A   Overcast
7:54 PM 73.9 °F - 71.1 °F 91% 30.00 in 10.0 mi Calm Calm - N/A   Overcast
8:17 PM 73.4 °F - 71.6 °F 94% 29.99 in 10.0 mi Calm Calm - N/A   Scattered Clouds
8:54 PM 73.0 °F - 71.1 °F 93% 30.00 in 10.0 mi NNE 3.5 mph - N/A   Mostly Cloudy
9:19 PM 71.6 °F - 71.6 °F 100% 30.00 in 10.0 mi Calm Calm - N/A   Scattered Clouds
9:54 PM 70.0 °F - 70.0 °F 100% 30.01 in 10.0 mi Calm Calm - N/A   Clear
10:54 PM 69.1 °F - 69.1 °F 100% 30.01 in 10.0 mi Calm Calm - N/A   Clear
11:54 PM 68.0 °F - 68.0 °F 100% 30.01 in 10.0 mi Calm Calm - N/A   Clear